"Sample Date","Sample Time","Sensor Name","Sample Value","Units","Flow Rate","Sample Interval","Sample Volume","Laser Status","Number Channels","Micron Size 0","Counts/Channel 0","Micron Size 1","Counts/Channel 1","Micron Size 2","Counts/Channel 2","Micron Size 3","Counts/Channel 3","Micron Size 4","Counts/Channel 4","Micron Size 5","Counts/Channel 5","Micron Size 6","Counts/Channel 6","Micron Size 7","Counts/Channel 7","Micron Size 8","Counts/Channel 8","Micron Size 9","Counts/Channel 9","Micron Size 10","Counts/Channel 10","Micron Size 11","Counts/Channel 11","Micron Size 12","Counts/Channel 12","Micron Size 13","Counts/Channel 13","Micron Size 14","Counts/Channel 14","Micron Size 15","Counts/Channel 15","Micron Size 16","Counts/Channel 16","Micron Size 17","Counts/Channel 17","Micron Size 18","Counts/Channel 18","Micron Size 19","Counts/Channel 19","Micron Size 20","Counts/Channel 20","Micron Size 21","Counts/Channel 21","Micron Size 22","Counts/Channel 22","Micron Size 23","Counts/Channel 23","Micron Size 24","Counts/Channel 24","Micron Size 25","Counts/Channel 25","Micron Size 26","Counts/Channel 26","Micron Size 27","Counts/Channel 27","Micron Size 28","Counts/Channel 28","Micron Size 29","Counts/Channel 29","Micron Size 30","Counts/Channel 30","Micron Size 31","Counts/Channel 31"
"07/03/06","20:00:02","AMMA06",81162.000,"cc",28214.529,6.00,2821.453,1,6,0.100,43812.000,0.200,27571.000,0.300,6308.000,0.500,2086.000,1.000,1384.000,5.000,1.000
"07/03/06","20:00:08","AMMA06",82026.000,"cc",28314.287,6.00,2831.429,1,6,0.100,44228.000,0.200,27942.000,0.300,6408.000,0.500,2061.000,1.000,1384.000,5.000,3.000
"07/03/06","20:00:14","AMMA06",81848.000,"cc",28325.840,6.00,2832.584,1,6,0.100,44128.000,0.200,27780.000,0.300,6382.000,0.500,2159.000,1.000,1398.000,5.000,1.000
"07/03/06","20:00:20","AMMA06",82174.000,"cc",28326.182,6.00,2832.618,1,6,0.100,44504.000,0.200,27773.000,0.300,6341.000,0.500,2159.000,1.000,1396.000,5.000,1.000
"07/03/06","20:00:26","AMMA06",81559.000,"cc",28309.229,6.00,2830.923,1,6,0.100,44068.000,0.200,27634.000,0.300,6408.000,0.500,2074.000,1.000,1373.000,5.000,2.000
"07/03/06","20:00:32","AMMA06",81751.000,"cc",28347.557,6.00,2834.756,1,6,0.100,44393.000,0.200,27588.000,0.300,6268.000,0.500,2110.000,1.000,1389.000,5.000,3.000
"07/03/06","20:00:38","AMMA06",81399.000,"cc",28283.426,6.00,2828.343,1,6,0.100,44005.000,0.200,27414.000,0.300,6471.000,0.500,2052.000,1.000,1452.000,5.000,5.000
"07/03/06","20:00:44","AMMA06",81014.000,"cc",28286.373,6.00,2828.638,1,6,0.100,43792.000,0.200,27541.000,0.300,6169.000,0.500,2129.000,1.000,1383.000,5.000,0
"07/03/06","20:00:50","AMMA06",80846.000,"cc",28327.176,6.00,2832.718,1,6,0.100,43912.000,0.200,27235.000,0.300,6249.000,0.500,2075.000,1.000,1374.000,5.000,1.000
"07/03/06","20:00:56","AMMA06",80996.000,"cc",28319.678,6.00,2831.968,1,6,0.100,43604.000,0.200,27592.000,0.300,6286.000,0.500,2159.000,1.000,1354.000,5.000,1.000
"07/03/06","20:01:02","AMMA06",81036.000,"cc",28359.889,6.00,2835.989,1,6,0.100,43952.000,0.200,27383.000,0.300,6260.000,0.500,2109.000,1.000,1331.000,5.000,1.000
"07/03/06","20:01:08","AMMA06",81144.000,"cc",28298.229,6.00,2829.823,1,6,0.100,44072.000,0.200,27294.000,0.300,6269.000,0.500,2161.000,1.000,1347.000,5.000,1.000
"07/03/06","20:01:14","AMMA06",81134.000,"cc",28324.393,6.00,2832.440,1,6,0.100,43703.000,0.200,27827.000,0.300,6126.000,0.500,2084.000,1.000,1392.000,5.000,2.000
"07/03/06","20:01:20","AMMA06",81008.000,"cc",28327.481,6.00,2832.748,1,6,0.100,43951.000,0.200,27362.000,0.300,6150.000,0.500,2100.000,1.000,1444.000,5.000,1.000
"07/03/06","20:01:26","AMMA06",80850.000,"cc",28290.537,6.00,2829.054,1,6,0.100,43899.000,0.200,27229.000,0.300,6112.000,0.500,2190.000,1.000,1417.000,5.000,3.000
"07/03/06","20:01:32","AMMA06",80614.000,"cc",28283.809,6.00,2828.381,1,6,0.100,43703.000,0.200,27297.000,0.300,6073.000,0.500,2160.000,1.000,1380.000,5.000,1.000
"07/03/06","20:01:38","AMMA06",80859.000,"cc",28310.680,6.00,2831.068,1,6,0.100,43798.000,0.200,27292.000,0.300,6205.000,0.500,2166.000,1.000,1396.000,5.000,2.000
"07/03/06","20:01:44","AMMA06",79768.000,"cc",28341.938,6.00,2834.194,1,6,0.100,43000.000,0.200,27124.000,0.300,6138.000,0.500,2124.000,1.000,1382.000,5.000,0
"07/03/06","20:01:50","AMMA06",79507.000,"cc",28320.828,6.00,2832.083,1,6,0.100,43063.000,0.200,26840.000,0.300,6093.000,0.500,2079.000,1.000,1432.000,5.000,0
"07/03/06","20:01:56","AMMA06",79885.000,"cc",28325.633,6.00,2832.564,1,6,0.100,43169.000,0.200,27229.000,0.300,5851.000,0.500,2188.000,1.000,1446.000,5.000,2.000
"07/03/06","20:02:02","AMMA06",80005.000,"cc",28319.264,6.00,2831.927,1,6,0.100,43108.000,0.200,27393.000,0.300,6115.000,0.500,2076.000,1.000,1312.000,5.000,1.000
"07/03/06","20:02:08","AMMA06",80203.000,"cc",28308.104,6.00,2830.811,1,6,0.100,43286.000,0.200,27213.000,0.300,6138.000,0.500,2160.000,1.000,1405.000,5.000,1.000
"07/03/06","20:02:14","AMMA06",79760.000,"cc",28323.305,6.00,2832.331,1,6,0.100,43193.000,0.200,27061.000,0.300,6012.000,0.500,2142.000,1.000,1350.000,5.000,2.000
"07/03/06","20:02:20","AMMA06",79460.000,"cc",28306.162,6.00,2830.617,1,6,0.100,42826.000,0.200,26925.000,0.300,6218.000,0.500,2184.000,1.000,1306.000,5.000,1.000
"07/03/06","20:02:26","AMMA06",79657.000,"cc",28330.262,6.00,2833.026,1,6,0.100,43022.000,0.200,27048.000,0.300,6059.000,0.500,2190.000,1.000,1337.000,5.000,1.000
"07/03/06","20:02:32","AMMA06",79686.000,"cc",28309.902,6.00,2830.991,1,6,0.100,43059.000,0.200,26961.000,0.300,6123.000,0.500,2160.000,1.000,1379.000,5.000,4.000
"07/03/06","20:02:38","AMMA06",79744.000,"cc",28383.604,6.00,2838.361,1,6,0.100,43249.000,0.200,26839.000,0.300,6057.000,0.500,2194.000,1.000,1403.000,5.000,2.000
"07/03/06","20:02:44","AMMA06",79547.000,"cc",28283.256,6.00,2828.326,1,6,0.100,43067.000,0.200,26981.000,0.300,5994.000,0.500,2247.000,1.000,1257.000,5.000,1.000
"07/03/06","20:02:50","AMMA06",79079.000,"cc",28286.836,6.00,2828.684,1,6,0.100,42655.000,0.200,26880.000,0.300,6010.000,0.500,2121.000,1.000,1412.000,5.000,1.000
"07/03/06","20:02:56","AMMA06",78781.000,"cc",28319.502,6.00,2831.950,1,6,0.100,42821.000,0.200,26707.000,0.300,5800.000,0.500,2115.000,1.000,1338.000,5.000,0
"07/03/06","20:03:02","AMMA06",78802.000,"cc",28339.867,6.00,2833.987,1,6,0.100,42411.000,0.200,26889.000,0.300,5936.000,0.500,2224.000,1.000,1339.000,5.000,3.000
"07/03/06","20:03:08","AMMA06",78386.000,"cc",28340.873,6.00,2834.087,1,6,0.100,42380.000,0.200,26708.000,0.300,5775.000,0.500,2155.000,1.000,1366.000,5.000,2.000
"07/03/06","20:03:14","AMMA06",79036.000,"cc",28301.627,6.00,2830.163,1,6,0.100,42756.000,0.200,26840.000,0.300,5957.000,0.500,2111.000,1.000,1372.000,5.000,0
"07/03/06","20:03:20","AMMA06",78524.000,"cc",28343.770,6.00,2834.377,1,6,0.100,42571.000,0.200,26568.000,0.300,5913.000,0.500,2110.000,1.000,1360.000,5.000,2.000
"07/03/06","20:03:26","AMMA06",78802.000,"cc",28279.266,6.00,2827.927,1,6,0.100,42442.000,0.200,26827.000,0.300,6006.000,0.500,2141.000,1.000,1385.000,5.000,1.000
"07/03/06","20:03:32","AMMA06",79502.000,"cc",28282.477,6.00,2828.248,1,6,0.100,42812.000,0.200,27156.000,0.300,6055.000,0.500,2123.000,1.000,1356.000,5.000,0
"07/03/06","20:03:38","AMMA06",79025.000,"cc",28361.883,6.00,2836.189,1,6,0.100,42827.000,0.200,26554.000,0.300,6101.000,0.500,2236.000,1.000,1305.000,5.000,2.000
"07/03/06","20:03:44","AMMA06",78301.000,"cc",28373.863,6.00,2837.387,1,6,0.100,42358.000,0.200,26412.000,0.300,5996.000,0.500,2185.000,1.000,1346.000,5.000,4.000
"07/03/06","20:03:50","AMMA06",78972.000,"cc",28308.647,6.00,2830.865,1,6,0.100,42434.000,0.200,27075.000,0.300,6076.000,0.500,2102.000,1.000,1283.000,5.000,2.000
"07/03/06","20:03:56","AMMA06",78994.000,"cc",28291.393,6.00,2829.139,1,6,0.100,42542.000,0.200,26795.000,0.300,6193.000,0.500,2124.000,1.000,1338.000,5.000,2.000
"07/03/06","20:04:02","AMMA06",78768.000,"cc",28308.354,6.00,2830.835,1,6,0.100,42131.000,0.200,27092.000,0.300,5932.000,0.500,2169.000,1.000,1441.000,5.000,3.000
"07/03/06","20:04:08","AMMA06",78645.000,"cc",28327.379,6.00,2832.738,1,6,0.100,42333.000,0.200,26799.000,0.300,6047.000,0.500,2118.000,1.000,1346.000,5.000,2.000
"07/03/06","20:04:14","AMMA06",78598.000,"cc",28324.356,6.00,2832.436,1,6,0.100,42160.000,0.200,26935.000,0.300,5963.000,0.500,2108.000,1.000,1428.000,5.000,4.000
"07/03/06","20:04:20","AMMA06",78841.000,"cc",28365.232,6.00,2836.523,1,6,0.100,42160.000,0.200,27123.000,0.300,6029.000,0.500,2174.000,1.000,1354.000,5.000,1.000
"07/03/06","20:04:26","AMMA06",78582.000,"cc",28329.092,6.00,2832.909,1,6,0.100,42367.000,0.200,26599.000,0.300,6052.000,0.500,2156.000,1.000,1407.000,5.000,1.000
"07/03/06","20:04:32","AMMA06",79090.000,"cc",28238.940,6.00,2823.894,1,6,0.100,42759.000,0.200,26765.000,0.300,6048.000,0.500,2170.000,1.000,1346.000,5.000,2.000
"07/03/06","20:04:38","AMMA06",79109.000,"cc",28308.412,6.00,2830.841,1,6,0.100,42674.000,0.200,26990.000,0.300,5935.000,0.500,2140.000,1.000,1370.000,5.000,0
"07/03/06","20:04:44","AMMA06",78441.000,"cc",28353.805,6.00,2835.381,1,6,0.100,42028.000,0.200,26965.000,0.300,6098.000,0.500,2053.000,1.000,1297.000,5.000,0
"07/03/06","20:04:50","AMMA06",78872.000,"cc",28347.184,6.00,2834.719,1,6,0.100,42523.000,0.200,26792.000,0.300,6123.000,0.500,2113.000,1.000,1321.000,5.000,0
"07/03/06","20:04:56","AMMA06",78409.000,"cc",28241.402,6.00,2824.140,1,6,0.100,42251.000,0.200,26654.000,0.300,6059.000,0.500,2093.000,1.000,1349.000,5.000,3.000
"07/03/06","20:05:02","AMMA06",78226.000,"cc",28367.006,6.00,2836.701,1,6,0.100,42007.000,0.200,26702.000,0.300,6107.000,0.500,2056.000,1.000,1352.000,5.000,2.000
"07/03/06","20:05:08","AMMA06",78762.000,"cc",28326.996,6.00,2832.700,1,6,0.100,42191.000,0.200,26912.000,0.300,6164.000,0.500,2096.000,1.000,1396.000,5.000,3.000
"07/03/06","20:05:14","AMMA06",78195.000,"cc",28284.440,6.00,2828.444,1,6,0.100,41872.000,0.200,26794.000,0.300,5972.000,0.500,2220.000,1.000,1336.000,5.000,1.000
"07/03/06","20:05:20","AMMA06",78661.000,"cc",28340.176,6.00,2834.018,1,6,0.100,42285.000,0.200,26814.000,0.300,6131.000,0.500,2111.000,1.000,1318.000,5.000,2.000
"07/03/06","20:05:26","AMMA06",78519.000,"cc",28315.184,6.00,2831.519,1,6,0.100,42150.000,0.200,26860.000,0.300,6047.000,0.500,2140.000,1.000,1320.000,5.000,2.000
"07/03/06","20:05:32","AMMA06",78698.000,"cc",28290.170,6.00,2829.017,1,6,0.100,42202.000,0.200,26804.000,0.300,6162.000,0.500,2182.000,1.000,1348.000,5.000,0
"07/03/06","20:05:38","AMMA06",78563.000,"cc",28287.047,6.00,2828.705,1,6,0.100,41907.000,0.200,27135.000,0.300,6106.000,0.500,2095.000,1.000,1319.000,5.000,1.000
"07/03/06","20:05:44","AMMA06",78770.000,"cc",28375.836,6.00,2837.584,1,6,0.100,42325.000,0.200,26911.000,0.300,6096.000,0.500,2106.000,1.000,1332.000,5.000,0
"07/03/06","20:05:50","AMMA06",78994.000,"cc",28309.869,6.00,2830.987,1,6,0.100,42141.000,0.200,27077.000,0.300,6172.000,0.500,2247.000,1.000,1355.000,5.000,2.000
"07/03/06","20:05:56","AMMA06",78934.000,"cc",28289.020,6.00,2828.902,1,6,0.100,42351.000,0.200,27125.000,0.300,5928.000,0.500,2125.000,1.000,1401.000,5.000,4.000
"07/03/06","20:06:02","AMMA06",78306.000,"cc",28359.127,6.00,2835.913,1,6,0.100,41798.000,0.200,27014.000,0.300,5981.000,0.500,2156.000,1.000,1353.000,5.000,4.000
"07/03/06","20:06:08","AMMA06",78143.000,"cc",28308.934,6.00,2830.894,1,6,0.100,41660.000,0.200,26986.000,0.300,6004.000,0.500,2143.000,1.000,1349.000,5.000,1.000
"07/03/06","20:06:14","AMMA06",78641.000,"cc",28298.949,6.00,2829.895,1,6,0.100,42010.000,0.200,27008.000,0.300,6123.000,0.500,2158.000,1.000,1340.000,5.000,2.000
"07/03/06","20:06:20","AMMA06",78925.000,"cc",28313.213,6.00,2831.322,1,6,0.100,42126.000,0.200,27286.000,0.300,6135.000,0.500,2055.000,1.000,1323.000,5.000,0
"07/03/06","20:06:26","AMMA06",79010.000,"cc",28310.424,6.00,2831.043,1,6,0.100,42285.000,0.200,27153.000,0.300,6116.000,0.500,2112.000,1.000,1341.000,5.000,3.000
"07/03/06","20:06:32","AMMA06",78968.000,"cc",28334.359,6.00,2833.436,1,6,0.100,42226.000,0.200,27056.000,0.300,6245.000,0.500,2110.000,1.000,1328.000,5.000,3.000
"07/03/06","20:06:38","AMMA06",78041.000,"cc",28330.590,6.00,2833.059,1,6,0.100,41528.000,0.200,26846.000,0.300,6120.000,0.500,2140.000,1.000,1406.000,5.000,1.000
"07/03/06","20:06:44","AMMA06",78334.000,"cc",28333.168,6.00,2833.317,1,6,0.100,41827.000,0.200,26885.000,0.300,6118.000,0.500,2136.000,1.000,1368.000,5.000,0
"07/03/06","20:06:50","AMMA06",78516.000,"cc",28299.115,6.00,2829.912,1,6,0.100,41809.000,0.200,27151.000,0.300,6188.000,0.500,2035.000,1.000,1331.000,5.000,2.000
"07/03/06","20:06:56","AMMA06",78570.000,"cc",28348.424,6.00,2834.843,1,6,0.100,41732.000,0.200,27280.000,0.300,6083.000,0.500,2105.000,1.000,1370.000,5.000,0
"07/03/06","20:07:02","AMMA06",78852.000,"cc",28310.074,6.00,2831.008,1,6,0.100,42011.000,0.200,27180.000,0.300,6131.000,0.500,2146.000,1.000,1383.000,5.000,1.000
"07/03/06","20:07:08","AMMA06",78411.000,"cc",28366.775,6.00,2836.678,1,6,0.100,41770.000,0.200,26981.000,0.300,6170.000,0.500,2095.000,1.000,1395.000,5.000,0
"07/03/06","20:07:14","AMMA06",78082.000,"cc",28238.248,6.00,2823.825,1,6,0.100,41683.000,0.200,26659.000,0.300,6256.000,0.500,2078.000,1.000,1405.000,5.000,1.000
"07/03/06","20:07:20","AMMA06",78018.000,"cc",28341.391,6.00,2834.139,1,6,0.100,41441.000,0.200,27136.000,0.300,6054.000,0.500,2061.000,1.000,1324.000,5.000,2.000
"07/03/06","20:07:26","AMMA06",78156.000,"cc",28337.797,6.00,2833.780,1,6,0.100,41592.000,0.200,26870.000,0.300,6182.000,0.500,2145.000,1.000,1366.000,5.000,1.000
"07/03/06","20:07:32","AMMA06",78262.000,"cc",28307.318,6.00,2830.732,1,6,0.100,41851.000,0.200,26711.000,0.300,6208.000,0.500,2120.000,1.000,1371.000,5.000,1.000
"07/03/06","20:07:38","AMMA06",78232.000,"cc",28313.738,6.00,2831.374,1,6,0.100,41938.000,0.200,26565.000,0.300,6230.000,0.500,2154.000,1.000,1345.000,5.000,0
"07/03/06","20:07:44","AMMA06",78374.000,"cc",28316.990,6.00,2831.699,1,6,0.100,41370.000,0.200,27211.000,0.300,6206.000,0.500,2195.000,1.000,1390.000,5.000,2.000
"07/03/06","20:07:50","AMMA06",77838.000,"cc",28297.938,6.00,2829.794,1,6,0.100,41575.000,0.200,26780.000,0.300,6058.000,0.500,2059.000,1.000,1365.000,5.000,1.000
"07/03/06","20:07:56","AMMA06",78551.000,"cc",28313.842,6.00,2831.384,1,6,0.100,41578.000,0.200,27303.000,0.300,6102.000,0.500,2207.000,1.000,1361.000,5.000,0
"07/03/06","20:08:02","AMMA06",78343.000,"cc",28334.164,6.00,2833.417,1,6,0.100,41643.000,0.200,26979.000,0.300,6181.000,0.500,2185.000,1.000,1353.000,5.000,2.000
"07/03/06","20:08:08","AMMA06",78105.000,"cc",28358.949,6.00,2835.895,1,6,0.100,41649.000,0.200,26815.000,0.300,6122.000,0.500,2120.000,1.000,1398.000,5.000,1.000
"07/03/06","20:08:14","AMMA06",78479.000,"cc",28297.272,6.00,2829.727,1,6,0.100,41660.000,0.200,27182.000,0.300,6180.000,0.500,2103.000,1.000,1353.000,5.000,1.000
"07/03/06","20:08:20","AMMA06",77911.000,"cc",28333.805,6.00,2833.381,1,6,0.100,40926.000,0.200,27312.000,0.300,6190.000,0.500,2131.000,1.000,1352.000,5.000,0
"07/03/06","20:08:26","AMMA06",78586.000,"cc",28296.084,6.00,2829.609,1,6,0.100,41798.000,0.200,27156.000,0.300,6095.000,0.500,2156.000,1.000,1379.000,5.000,2.000
"07/03/06","20:08:32","AMMA06",77989.000,"cc",28247.859,6.00,2824.786,1,6,0.100,41647.000,0.200,26742.000,0.300,6057.000,0.500,2146.000,1.000,1396.000,5.000,1.000
"07/03/06","20:08:38","AMMA06",78305.000,"cc",28397.455,6.00,2839.746,1,6,0.100,41587.000,0.200,27015.000,0.300,6178.000,0.500,2125.000,1.000,1398.000,5.000,2.000
"07/03/06","20:08:44","AMMA06",77410.000,"cc",28293.377,6.00,2829.338,1,6,0.100,41058.000,0.200,26734.000,0.300,6125.000,0.500,2133.000,1.000,1357.000,5.000,3.000
"07/03/06","20:08:50","AMMA06",77752.000,"cc",28281.648,6.00,2828.165,1,6,0.100,41300.000,0.200,26887.000,0.300,6056.000,0.500,2193.000,1.000,1314.000,5.000,2.000
"07/03/06","20:08:56","AMMA06",77605.000,"cc",28312.354,6.00,2831.236,1,6,0.100,41286.000,0.200,26815.000,0.300,6111.000,0.500,2101.000,1.000,1290.000,5.000,2.000
"07/03/06","20:09:02","AMMA06",77920.000,"cc",28281.979,6.00,2828.198,1,6,0.100,41432.000,0.200,26832.000,0.300,6121.000,0.500,2136.000,1.000,1395.000,5.000,4.000
"07/03/06","20:09:08","AMMA06",77267.000,"cc",28339.217,6.00,2833.922,1,6,0.100,40807.000,0.200,26762.000,0.300,6192.000,0.500,2085.000,1.000,1421.000,5.000,0
"07/03/06","20:09:14","AMMA06",77644.000,"cc",28388.445,6.00,2838.845,1,6,0.100,41230.000,0.200,26865.000,0.300,6148.000,0.500,2052.000,1.000,1348.000,5.000,1.000
"07/03/06","20:09:20","AMMA06",77676.000,"cc",28318.895,6.00,2831.890,1,6,0.100,41317.000,0.200,26667.000,0.300,6080.000,0.500,2159.000,1.000,1450.000,5.000,3.000
"07/03/06","20:09:26","AMMA06",77499.000,"cc",28251.529,6.00,2825.153,1,6,0.100,41107.000,0.200,26861.000,0.300,6055.000,0.500,2112.000,1.000,1361.000,5.000,3.000
"07/03/06","20:09:32","AMMA06",77086.000,"cc",28362.139,6.00,2836.214,1,6,0.100,40878.000,0.200,26604.000,0.300,6069.000,0.500,2159.000,1.000,1373.000,5.000,3.000
"07/03/06","20:09:38","AMMA06",77525.000,"cc",28380.586,6.00,2838.059,1,6,0.100,41216.000,0.200,26776.000,0.300,6022.000,0.500,2092.000,1.000,1419.000,5.000,0
"07/03/06","20:09:44","AMMA06",77635.000,"cc",28289.293,6.00,2828.929,1,6,0.100,41055.000,0.200,27006.000,0.300,5978.000,0.500,2221.000,1.000,1373.000,5.000,2.000
"07/03/06","20:09:50","AMMA06",77123.000,"cc",28298.453,6.00,2829.846,1,6,0.100,41013.000,0.200,26560.000,0.300,6013.000,0.500,2142.000,1.000,1393.000,5.000,2.000
"07/03/06","20:09:56","AMMA06",76815.000,"cc",28359.342,6.00,2835.934,1,6,0.100,40778.000,0.200,26590.000,0.300,5989.000,0.500,2071.000,1.000,1386.000,5.000,1.000
"07/03/06","20:10:02","AMMA06",77047.000,"cc",28292.295,6.00,2829.230,1,6,0.100,40820.000,0.200,26649.000,0.300,5953.000,0.500,2143.000,1.000,1478.000,5.000,4.000
"07/03/06","20:10:08","AMMA06",77154.000,"cc",28235.406,6.00,2823.541,1,6,0.100,40927.000,0.200,26649.000,0.300,6064.000,0.500,2137.000,1.000,1377.000,5.000,0
"07/03/06","20:10:14","AMMA06",76998.000,"cc",28356.092,6.00,2835.609,1,6,0.100,41098.000,0.200,26521.000,0.300,5954.000,0.500,2079.000,1.000,1343.000,5.000,3.000
"07/03/06","20:10:20","AMMA06",76822.000,"cc",28340.111,6.00,2834.011,1,6,0.100,41063.000,0.200,26314.000,0.300,5885.000,0.500,2163.000,1.000,1396.000,5.000,1.000
"07/03/06","20:10:26","AMMA06",76826.000,"cc",28272.338,6.00,2827.234,1,6,0.100,40861.000,0.200,26514.000,0.300,6004.000,0.500,2148.000,1.000,1299.000,5.000,0
"07/03/06","20:10:32","AMMA06",76527.000,"cc",28360.033,6.00,2836.003,1,6,0.100,40654.000,0.200,26483.000,0.300,5929.000,0.500,2148.000,1.000,1312.000,5.000,1.000
"07/03/06","20:10:38","AMMA06",76686.000,"cc",28305.498,6.00,2830.550,1,6,0.100,40776.000,0.200,26403.000,0.300,6020.000,0.500,2125.000,1.000,1357.000,5.000,5.000
"07/03/06","20:10:44","AMMA06",75261.000,"cc",28339.393,6.00,2833.940,1,6,0.100,40030.000,0.200,26116.000,0.300,5820.000,0.500,2017.000,1.000,1278.000,5.000,0
"07/03/06","20:10:50","AMMA06",75730.000,"cc",28318.662,6.00,2831.867,1,6,0.100,40021.000,0.200,26440.000,0.300,5804.000,0.500,2117.000,1.000,1345.000,5.000,3.000
"07/03/06","20:10:56","AMMA06",75897.000,"cc",28276.785,6.00,2827.679,1,6,0.100,40368.000,0.200,26171.000,0.300,5976.000,0.500,2063.000,1.000,1316.000,5.000,3.000
"07/03/06","20:11:02","AMMA06",76059.000,"cc",28317.906,6.00,2831.791,1,6,0.100,40646.000,0.200,26095.000,0.300,5873.000,0.500,2130.000,1.000,1312.000,5.000,3.000
"07/03/06","20:11:08","AMMA06",75823.000,"cc",28350.895,6.00,2835.090,1,6,0.100,39987.000,0.200,26320.000,0.300,5997.000,0.500,2165.000,1.000,1353.000,5.000,1.000
"07/03/06","20:11:14","AMMA06",75656.000,"cc",28275.975,6.00,2827.598,1,6,0.100,40333.000,0.200,26084.000,0.300,5810.000,0.500,2108.000,1.000,1318.000,5.000,3.000
"07/03/06","20:11:20","AMMA06",76039.000,"cc",28283.924,6.00,2828.393,1,6,0.100,40584.000,0.200,26104.000,0.300,5906.000,0.500,2060.000,1.000,1384.000,5.000,1.000
"07/03/06","20:11:26","AMMA06",75481.000,"cc",28325.762,6.00,2832.576,1,6,0.100,40046.000,0.200,26103.000,0.300,5873.000,0.500,2117.000,1.000,1341.000,5.000,1.000
"07/03/06","20:11:32","AMMA06",75673.000,"cc",28312.914,6.00,2831.292,1,6,0.100,40248.000,0.200,26232.000,0.300,5852.000,0.500,2015.000,1.000,1324.000,5.000,2.000
"07/03/06","20:11:38","AMMA06",75863.000,"cc",28329.488,6.00,2832.949,1,6,0.100,40273.000,0.200,26165.000,0.300,5943.000,0.500,2166.000,1.000,1314.000,5.000,2.000
"07/03/06","20:11:44","AMMA06",75624.000,"cc",28395.750,6.00,2839.575,1,6,0.100,40194.000,0.200,26203.000,0.300,5859.000,0.500,2094.000,1.000,1272.000,5.000,2.000
"07/03/06","20:11:50","AMMA06",75595.000,"cc",28288.941,6.00,2828.894,1,6,0.100,40229.000,0.200,26172.000,0.300,5831.000,0.500,2086.000,1.000,1277.000,5.000,0
"07/03/06","20:11:56","AMMA06",75277.000,"cc",28297.545,6.00,2829.755,1,6,0.100,39943.000,0.200,26121.000,0.300,5883.000,0.500,2016.000,1.000,1314.000,5.000,0
"07/03/06","20:12:02","AMMA06",74830.000,"cc",28334.842,6.00,2833.484,1,6,0.100,39436.000,0.200,26147.000,0.300,5905.000,0.500,2056.000,1.000,1281.000,5.000,5.000
"07/03/06","20:12:08","AMMA06",75072.000,"cc",28328.309,6.00,2832.831,1,6,0.100,39821.000,0.200,25884.000,0.300,5955.000,0.500,2087.000,1.000,1324.000,5.000,1.000
"07/03/06","20:12:14","AMMA06",74909.000,"cc",28328.178,6.00,2832.818,1,6,0.100,39539.000,0.200,26240.000,0.300,5780.000,0.500,2059.000,1.000,1291.000,5.000,0
"07/03/06","20:12:20","AMMA06",75323.000,"cc",28313.250,6.00,2831.325,1,6,0.100,39953.000,0.200,26002.000,0.300,5915.000,0.500,2093.000,1.000,1359.000,5.000,1.000
"07/03/06","20:12:26","AMMA06",75053.000,"cc",28286.660,6.00,2828.666,1,6,0.100,39536.000,0.200,26213.000,0.300,5891.000,0.500,2093.000,1.000,1318.000,5.000,2.000
"07/03/06","20:12:32","AMMA06",75103.000,"cc",28384.350,6.00,2838.435,1,6,0.100,39468.000,0.200,26360.000,0.300,5848.000,0.500,2114.000,1.000,1311.000,5.000,2.000
"07/03/06","20:12:38","AMMA06",75249.000,"cc",28321.322,6.00,2832.132,1,6,0.100,39732.000,0.200,26172.000,0.300,5856.000,0.500,2145.000,1.000,1343.000,5.000,1.000
"07/03/06","20:12:44","AMMA06",75068.000,"cc",28208.307,6.00,2820.831,1,6,0.100,39929.000,0.200,26017.000,0.300,5765.000,0.500,2034.000,1.000,1322.000,5.000,1.000
"07/03/06","20:12:50","AMMA06",74841.000,"cc",28379.023,6.00,2837.903,1,6,0.100,39680.000,0.200,25851.000,0.300,5872.000,0.500,2106.000,1.000,1332.000,5.000,0
"07/03/06","20:12:56","AMMA06",75013.000,"cc",28339.193,6.00,2833.919,1,6,0.100,39814.000,0.200,26164.000,0.300,5754.000,0.500,2003.000,1.000,1278.000,5.000,0
"07/03/06","20:13:02","AMMA06",75227.000,"cc",28278.178,6.00,2827.818,1,6,0.100,39800.000,0.200,26197.000,0.300,5821.000,0.500,2082.000,1.000,1325.000,5.000,2.000
"07/03/06","20:13:08","AMMA06",75688.000,"cc",28303.297,6.00,2830.330,1,6,0.100,40024.000,0.200,26258.000,0.300,5971.000,0.500,2079.000,1.000,1353.000,5.000,3.000
"07/03/06","20:13:14","AMMA06",75750.000,"cc",28331.137,6.00,2833.114,1,6,0.100,40139.000,0.200,26297.000,0.300,5854.000,0.500,2124.000,1.000,1335.000,5.000,1.000
"07/03/06","20:13:20","AMMA06",75146.000,"cc",28289.682,6.00,2828.968,1,6,0.100,39718.000,0.200,26119.000,0.300,5891.000,0.500,2092.000,1.000,1322.000,5.000,4.000
"07/03/06","20:13:26","AMMA06",75244.000,"cc",28353.297,6.00,2835.330,1,6,0.100,39851.000,0.200,26176.000,0.300,5885.000,0.500,2036.000,1.000,1292.000,5.000,4.000
"07/03/06","20:13:32","AMMA06",74875.000,"cc",28336.328,6.00,2833.633,1,6,0.100,39897.000,0.200,25984.000,0.300,5692.000,0.500,2004.000,1.000,1294.000,5.000,4.000
"07/03/06","20:13:38","AMMA06",74588.000,"cc",28352.897,6.00,2835.290,1,6,0.100,39629.000,0.200,25798.000,0.300,5736.000,0.500,2102.000,1.000,1322.000,5.000,1.000
"07/03/06","20:13:44","AMMA06",74900.000,"cc",28306.102,6.00,2830.610,1,6,0.100,39460.000,0.200,26246.000,0.300,5746.000,0.500,2129.000,1.000,1315.000,5.000,4.000
"07/03/06","20:13:50","AMMA06",75262.000,"cc",28283.285,6.00,2828.329,1,6,0.100,39833.000,0.200,26080.000,0.300,5983.000,0.500,2105.000,1.000,1260.000,5.000,1.000